YMA7560 RJOB-RKPC

Flight info

Callsign YMA7560
Flight time N/A
Altitude 32000
Route HGE MASKU MARCO DEMIZ KATTA UBE IKE GOURA SAMDO TAMNA
Aircraft B738/M-ICAO/L

Departure

Time 2026-04-30 09:09
Airport Okayama Momotaro Airport (RJOB)

Arrival

Time N/A
Airport Jeju International Airport (RKPC)
Time Latitude Longitude Altitude Speed Heading
2026-04-30 07:08 34.75906 133.85263 808 ft 0 kts 329°
2026-04-30 08:49 34.75897 133.85269 808 ft 2 kts 329°
2026-04-30 08:50 34.75884 133.85278 808 ft 2 kts 328°
2026-04-30 08:50 34.75870 133.85284 807 ft 2 kts 357°
2026-04-30 08:50 34.75855 133.85283 806 ft 2 kts 19°
2026-04-30 08:50 34.75842 133.85275 806 ft 2 kts 42°
2026-04-30 08:51 34.75835 133.85266 806 ft 1 kts 56°
2026-04-30 08:51 34.75832 133.85259 805 ft 0 kts 58°
2026-04-30 09:04 34.75838 133.85272 806 ft 6 kts 67°
2026-04-30 09:04 34.75773 133.85313 802 ft 19 kts 220°
2026-04-30 09:04 34.75671 133.85109 800 ft 27 kts 238°
2026-04-30 09:05 34.75618 133.84994 800 ft 13 kts 239°
2026-04-30 09:05 34.75568 133.84897 800 ft 12 kts 238°
2026-04-30 09:05 34.75523 133.84808 800 ft 11 kts 238°
2026-04-30 09:05 34.75483 133.84729 800 ft 10 kts 238°
2026-04-30 09:06 34.75450 133.84663 802 ft 7 kts 238°
2026-04-30 09:06 34.75429 133.84622 803 ft 4 kts 238°
2026-04-30 09:06 34.75417 133.84599 803 ft 2 kts 239°
2026-04-30 09:06 34.75406 133.84575 804 ft 5 kts 240°
2026-04-30 09:07 34.75375 133.84511 805 ft 12 kts 240°
2026-04-30 09:07 34.75312 133.84380 805 ft 23 kts 240°
2026-04-30 09:07 34.75211 133.84169 800 ft 32 kts 238°
2026-04-30 09:07 34.75075 133.84099 796 ft 15 kts 149°
2026-04-30 09:08 34.75023 133.84177 799 ft 10 kts 69°
2026-04-30 09:08 34.75028 133.84190 800 ft 0 kts 57°
2026-04-30 09:09 34.75046 133.84227 801 ft 28 kts 60°
2026-04-30 09:09 34.75287 133.84723 799 ft 107 kts 60°
2026-04-30 09:09 34.75764 133.85687 1064 ft 139 kts 53°
2026-04-30 09:09 34.76471 133.86298 1766 ft 142 kts 20°
2026-04-30 09:10 34.77732 133.86310 1645 ft 209 kts 348°
2026-04-30 09:10 34.78896 133.85553 3056 ft 183 kts 317°
2026-04-30 09:10 34.79574 133.84415 3834 ft 184 kts 291°
2026-04-30 09:10 34.79993 133.82732 3869 ft 234 kts 274°
2026-04-30 09:11 34.80072 133.80724 4823 ft 236 kts 259°
2026-04-30 09:11 34.79780 133.79033 6457 ft 196 kts 238°
2026-04-30 09:11 34.79195 133.77712 7559 ft 179 kts 225°
2026-04-30 09:11 34.78304 133.76494 7802 ft 213 kts 217°
2026-04-30 09:12 34.77112 133.75304 8495 ft 226 kts 211°
2026-04-30 09:12 34.75934 133.74377 10099 ft 192 kts 207°
2026-04-30 09:12 34.74860 133.73694 11143 ft 177 kts 202°
2026-04-30 09:12 34.73562 133.73164 11006 ft 226 kts 194°
2026-04-30 09:13 34.71889 133.72786 11358 ft 250 kts 187°
2026-04-30 09:13 34.70338 133.72673 13071 ft 210 kts 184°
2026-04-30 09:13 34.69043 133.72765 14152 ft 189 kts 180°
2026-04-30 09:13 34.67593 133.72974 13811 ft 243 kts 177°
2026-04-30 09:14 34.65751 133.73282 13757 ft 279 kts 176°
2026-04-30 09:14 34.63999 133.73663 15404 ft 239 kts 176°
2026-04-30 09:14 34.62615 133.74054 16817 ft 197 kts 178°
2026-04-30 09:14 34.61202 133.74435 16695 ft 234 kts 178°
2026-04-30 09:15 34.59400 133.74774 16076 ft 286 kts 180°
2026-04-30 09:15 34.57438 133.75023 17094 ft 269 kts 184°
2026-04-30 09:15 34.55880 133.75183 18944 ft 208 kts 188°
2026-04-30 09:15 34.54539 133.75256 19490 ft 203 kts 191°
2026-04-30 09:16 34.52927 133.75157 18612 ft 265 kts 194°
2026-04-30 09:16 34.51002 133.74797 18527 ft 287 kts 199°
2026-04-30 09:16 34.49265 133.74315 20323 ft 234 kts 204°
2026-04-30 09:16 34.47985 133.73850 21818 ft 181 kts 208°
2026-04-30 09:17 34.46778 133.73248 21559 ft 215 kts 212°
2026-04-30 09:17 34.45305 133.72237 20483 ft 276 kts 217°
2026-04-30 09:17 34.43740 133.70857 21072 ft 270 kts 222°
2026-04-30 09:17 34.42656 133.69507 22862 ft 213 kts 246°
2026-04-30 09:18 34.42451 133.67723 23027 ft 236 kts 269°
2026-04-30 09:18 34.42745 133.65576 22432 ft 281 kts 276°
2026-04-30 09:18 34.43284 133.63286 23017 ft 280 kts 282°
2026-04-30 09:18 34.44015 133.61327 24506 ft 246 kts 288°
2026-04-30 09:19 34.44899 133.59648 25207 ft 242 kts 293°
2026-04-30 09:19 34.46011 133.57907 24577 ft 289 kts 298°
2026-04-30 09:19 34.47445 133.55965 24130 ft 323 kts 304°
2026-04-30 09:19 34.48939 133.54092 25093 ft 292 kts 288°
2026-04-30 09:20 34.49570 133.51965 25808 ft 257 kts 265°
2026-04-30 09:20 34.49444 133.49857 26050 ft 254 kts 255°
2026-04-30 09:20 34.49200 133.47742 26461 ft 254 kts 256°
2026-04-30 09:20 34.49015 133.45641 27063 ft 248 kts 258°
2026-04-30 09:21 34.48902 133.43564 27485 ft 247 kts 260°
2026-04-30 09:21 34.48869 133.41469 27666 ft 256 kts 262°
2026-04-30 09:21 34.48925 133.39269 27861 ft 264 kts 265°
2026-04-30 09:21 34.49089 133.37076 28256 ft 265 kts 268°
2026-04-30 09:22 34.49320 133.34883 28716 ft 257 kts 262°
2026-04-30 09:22 34.49269 133.32738 28963 ft 259 kts 262°
2026-04-30 09:22 34.49392 133.30486 29145 ft 271 kts 268°
2026-04-30 09:22 34.49751 133.28223 29444 ft 278 kts 274°
2026-04-30 09:23 34.50311 133.26004 29847 ft 276 kts 270°
2026-04-30 09:23 34.50383 133.23723 29761 ft 275 kts 263°
2026-04-30 09:23 34.50124 133.21419 29566 ft 283 kts 250°
2026-04-30 09:23 34.49691 133.19098 30141 ft 277 kts 253°
2026-04-30 09:24 34.49432 133.16914 31275 ft 252 kts 255°
2026-04-30 09:24 34.49127 133.14966 32044 ft 232 kts 249°
2026-04-30 09:24 34.48680 133.13039 31966 ft 245 kts 250°
2026-04-30 09:24 34.48237 133.10947 31422 ft 272 kts 252°
2026-04-30 09:25 34.47825 133.08632 31282 ft 286 kts 254°
2026-04-30 09:25 34.47542 133.06290 32000 ft 276 kts 258°
2026-04-30 09:25 34.47459 133.04094 32990 ft 256 kts 262°
2026-04-30 09:25 34.47573 133.01997 33458 ft 254 kts 266°
2026-04-30 09:26 34.47867 132.99777 33132 ft 278 kts 271°
2026-04-30 09:26 34.48365 132.97400 32617 ft 307 kts 276°
2026-04-30 09:26 34.48593 132.94908 32371 ft 301 kts 255°
2026-04-30 09:26 34.47932 132.92519 32580 ft 295 kts 237°
2026-04-30 09:27 34.46643 132.90709 33404 ft 281 kts 221°
2026-04-30 09:27 34.45001 132.89569 34375 ft 270 kts 208°
2026-04-30 09:27 34.43153 132.89096 34655 ft 285 kts 195°
2026-04-30 09:27 34.41156 132.88702 34132 ft 292 kts 211°
2026-04-30 09:28 34.39418 132.87415 33347 ft 306 kts 227°
2026-04-30 09:28 34.38136 132.85301 33366 ft 309 kts 244°
2026-04-30 09:28 34.37588 132.82907 34411 ft 295 kts 258°
2026-04-30 09:28 34.37368 132.80582 35847 ft 261 kts 255°
2026-04-30 09:29 34.37131 132.78540 36570 ft 245 kts 253°
2026-04-30 09:29 34.36731 132.76492 36027 ft 263 kts 243°
2026-04-30 09:29 34.35700 132.74497 34629 ft 304 kts 230°
2026-04-30 09:29 34.34062 132.72723 34036 ft 327 kts 219°
2026-04-30 09:30 34.32222 132.71223 34510 ft 319 kts 222°
2026-04-30 09:30 34.30570 132.69524 35199 ft 304 kts 229°
2026-04-30 09:30 34.29263 132.67747 36248 ft 282 kts 231°
2026-04-30 09:30 34.27922 132.65805 34589 ft 329 kts 231°
2026-04-30 09:31 34.26361 132.63689 34469 ft 334 kts 229°
2026-04-30 09:31 34.25181 132.62154 36089 ft 301 kts 229°